Los Alamitos, CA

8:02 PM PST on December 17, 2017 (GMT -0800)
Los Alamitos Army Air Field

Weather History for KSLI - November, 2011

Change the Weather History Date:

Wednesday, November 2, 2011

  Actual Average Record
Temperature  
Mean Temperature 64 °F -  
Max Temperature 83 °F 72 °F 96 °F (1997)
Min Temperature 46 °F 57 °F 46 °F (2011)
Growing Degree Days 14 (Base 50)    
Moisture  
Dew Point 43 °F    
Average Humidity 84    
Maximum Humidity 100    
Minimum Humidity 5    
Precipitation  
Precipitation 0.00 in - - ()
Sea Level Pressure  
Sea Level Pressure 30.01 in    
Wind  
Wind Speed 1 mph (NE)    
Max Wind Speed 21 mph    
Max Gust Speed 30 mph    
Visibility 3 miles    
Events Fog    
Averages and records for this station are not official NWS values.
T = Trace of Precipitation, MM = Missing Value Source: NWS Daily Summary

Daily Weather History Graph

Daily Weather History Graph

Search for Another Location

Airport or City:

Trip Planner

Search our weather history database for the weather conditions in past years. The results will help you decide how hot, cold, wet, or windy it might be!

Date:

Astronomy

Nov. 02, 2011 Rise Set
Actual Time 7:12 AM PDT 5:58 PM PDT
Civil Twilight 6:46 AM PDT 6:24 PM PDT
Nautical Twilight 6:16 AM PDT 6:54 PM PDT
Astronomical Twilight 5:47 AM PDT 7:23 PM PDT
Moon 1:34 PM PDT (11/2) No Moon Set
Length of Visible Light 11h 38m
Length of Day
10h 46m
Waxing Crescent, 51% of the Moon is Illuminated
Nov 2
Waxing Crescent
Nov 10
Full
Nov 18
Last Quarter
Nov 24
New
Dec 2
First Quarter

Hourly Weather History & Observations

Time (PDT) Temp. Dew Point Humidity Pressure Visibility Wind Dir Wind Speed Gust Speed Precip Events Conditions
12:01 AM 53.6 °F 53.6 °F 100% 29.99 in 2.5 mi Calm Calm - N/A   Clear
12:02 AM 51.8 °F 51.8 °F 100% 29.99 in 1.2 mi Calm Calm - N/A   Clear
12:03 AM 51.8 °F 51.8 °F 100% 29.99 in 0.8 mi Calm Calm - N/A   Clear
12:04 AM 51.8 °F 51.8 °F 100% 29.99 in 0.5 mi Calm Calm - N/A Fog Fog
12:07 AM 51.8 °F 51.8 °F 100% 29.99 in 0.2 mi Calm Calm - N/A Fog Fog
12:14 AM 51.8 °F 51.8 °F 100% 29.99 in 0.5 mi Calm Calm - N/A Fog Fog
12:17 AM 53.6 °F 53.6 °F 100% 29.99 in 0.8 mi Calm Calm - N/A   Clear
12:21 AM 53.6 °F 53.6 °F 100% 30.00 in 1.0 mi Calm Calm - N/A   Clear
12:22 AM 51.8 °F 51.8 °F 100% 30.00 in 1.5 mi Calm Calm - N/A   Clear
12:23 AM 51.8 °F 51.8 °F 100% 30.00 in 2.5 mi Calm Calm - N/A   Clear
12:24 AM 51.8 °F 51.8 °F 100% 30.00 in 3.0 mi Calm Calm - N/A   Clear
12:55 AM 52.3 °F 52.2 °F 99% 30.00 in 4.0 mi Calm Calm - N/A   Clear
1:07 AM 51.8 °F 51.8 °F 100% 30.00 in 2.5 mi Calm Calm - N/A   Clear
1:15 AM 51.8 °F 51.8 °F 100% 30.00 in 3.0 mi Calm Calm - N/A   Clear
1:33 AM 50.0 °F 50.0 °F 100% 30.00 in 2.5 mi Calm Calm - N/A   Clear
1:41 AM 50.0 °F 50.0 °F 100% 30.00 in 3.0 mi Calm Calm - N/A   Clear
2:48 AM 50.0 °F 50.0 °F 100% 29.99 in 0.8 mi Calm Calm - N/A   Clear
2:50 AM 50.0 °F 50.0 °F 100% 29.99 in 1.0 mi Calm Calm - N/A   Clear
2:52 AM 50.0 °F 50.0 °F 100% 29.99 in 1.2 mi Calm Calm - N/A   Clear
2:55 AM 50.5 °F 50.5 °F 100% 29.99 in 1.2 mi Calm Calm - N/A   Clear
2:56 AM 51.8 °F 51.8 °F 100% 29.99 in 1.5 mi Calm Calm - N/A   Clear
2:57 AM 51.8 °F 51.8 °F 100% 29.99 in 1.2 mi Calm Calm - N/A   Clear
2:59 AM 51.8 °F 51.8 °F 100% 29.99 in 1.0 mi Calm Calm - N/A   Clear
3:00 AM 51.8 °F 51.8 °F 100% 29.99 in 0.8 mi Calm Calm - N/A   Clear
3:02 AM 50.0 °F 50.0 °F 100% 30.00 in 0.5 mi Calm Calm - N/A Fog Fog
3:05 AM 50.0 °F 50.0 °F 100% 29.99 in 0.2 mi Calm Calm - N/A Fog Fog
3:52 AM 50.0 °F 50.0 °F 100% 29.99 in 2.0 mi Calm Calm - N/A   Clear
3:55 AM 50.5 °F 50.5 °F 100% 29.99 in 2.5 mi Calm Calm - N/A   Clear
3:57 AM 51.8 °F 51.8 °F 100% 30.00 in 3.0 mi Calm Calm - N/A   Clear
4:08 AM 50.0 °F 50.0 °F 100% 29.99 in 2.5 mi Calm Calm - N/A   Clear
4:26 AM 48.2 °F 48.2 °F 100% 30.00 in 1.8 mi Calm Calm - N/A   Clear
4:28 AM 48.2 °F 48.2 °F 100% 30.00 in 1.2 mi Calm Calm - N/A   Clear
4:29 AM 48.2 °F 48.2 °F 100% 30.00 in 1.0 mi Calm Calm - N/A   Clear
4:30 AM 48.2 °F 48.2 °F 100% 30.00 in 0.8 mi Calm Calm - N/A   Clear
4:31 AM 48.2 °F 48.2 °F 100% 30.00 in 0.5 mi Calm Calm - N/A Fog Fog
4:34 AM 46.4 °F 46.4 °F 100% 30.00 in 0.2 mi Calm Calm - N/A Fog Fog
4:37 AM 48.2 °F 48.2 °F 100% 30.00 in 0.2 mi Calm Calm - N/A Fog Fog
4:40 AM 48.2 °F 48.2 °F 100% 30.00 in 0.2 mi Calm Calm - N/A Fog Fog
4:44 AM 48.2 °F 48.2 °F 100% 30.00 in 0.5 mi Calm Calm - N/A Fog Fog
4:46 AM 48.2 °F 48.2 °F 100% 30.00 in 0.8 mi Calm Calm - N/A   Clear
4:47 AM 48.2 °F 48.2 °F 100% 30.00 in 1.0 mi Calm Calm - N/A   Clear
4:48 AM 48.2 °F 48.2 °F 100% 30.00 in 1.8 mi Calm Calm - N/A   Clear
4:49 AM 48.2 °F 48.2 °F 100% 30.00 in 2.0 mi Calm Calm - N/A   Clear
4:51 AM 48.2 °F 48.2 °F 100% 30.00 in 3.0 mi Calm Calm - N/A   Clear
4:55 AM 48.7 °F 48.7 °F 100% 30.00 in 3.0 mi Calm Calm - N/A   Clear
5:00 AM 48.2 °F 48.2 °F 100% 30.00 in 2.0 mi Calm Calm - N/A   Clear
5:01 AM 48.2 °F 48.2 °F 100% 30.00 in 1.8 mi Calm Calm - N/A   Clear
5:02 AM 48.2 °F 48.2 °F 100% 30.00 in 1.2 mi Calm Calm - N/A   Clear
5:06 AM 48.2 °F 48.2 °F 100% 30.00 in 1.0 mi Calm Calm - N/A   Clear
5:11 AM 48.2 °F 48.2 °F 100% 30.01 in 1.2 mi Calm Calm - N/A   Clear
5:14 AM 48.2 °F 48.2 °F 100% 30.01 in 1.0 mi Calm Calm - N/A   Clear
5:15 AM 48.2 °F 48.2 °F 100% 30.01 in 0.8 mi Calm Calm - N/A   Clear
5:17 AM 48.2 °F 48.2 °F 100% 30.01 in 0.5 mi Calm Calm - N/A Fog Fog
5:27 AM 48.2 °F 48.2 °F 100% 30.01 in 0.8 mi Calm Calm - N/A   Clear
5:28 AM 48.2 °F 48.2 °F 100% 30.01 in 1.0 mi Calm Calm - N/A   Clear
5:29 AM 48.2 °F 48.2 °F 100% 30.01 in 1.5 mi Calm Calm - N/A   Clear
5:31 AM 48.2 °F 48.2 °F 100% 30.01 in 2.0 mi Calm Calm - N/A   Clear
5:35 AM 48.2 °F 48.2 °F 100% 30.01 in 3.0 mi Calm Calm - N/A   Clear
5:40 AM 48.2 °F 48.2 °F 100% 30.01 in 1.8 mi Calm Calm - N/A   Clear
5:41 AM 48.2 °F 48.2 °F 100% 30.01 in 1.0 mi Calm Calm - N/A   Clear
5:43 AM 48.2 °F 48.2 °F 100% 30.01 in 0.8 mi Calm Calm - N/A   Clear
5:49 AM 48.2 °F 48.2 °F 100% 30.01 in 1.0 mi Calm Calm - N/A   Clear
5:51 AM 48.2 °F 48.2 °F 100% 30.01 in 1.8 mi NW 3.5 mph - N/A   Clear
5:52 AM 48.2 °F 48.2 °F 100% 30.01 in 2.5 mi NW 3.5 mph - N/A   Clear
5:53 AM 48.2 °F 48.2 °F 100% 30.01 in 4.0 mi NW 3.5 mph - N/A   Clear
5:55 AM 47.5 °F 47.5 °F 100% 30.01 in 5.0 mi NW 3.5 mph - N/A   Clear
6:55 AM 48.2 °F 48.2 °F 100% 30.04 in 5.0 mi Calm Calm - N/A   Clear
7:55 AM 48.6 °F 48.6 °F 100% 30.05 in 7.0 mi North 3.5 mph - N/A   Clear
8:55 AM 65.8 °F 35.6 °F 33% 30.08 in 10.0 mi NE 4.6 mph - N/A   Clear
9:55 AM 73.4 °F 16.0 °F 11% 30.09 in 10.0 mi East 10.4 mph 17.3 mph N/A   Clear
10:55 AM 76.6 °F 4.3 °F 6% 30.09 in 10.0 mi ENE 16.1 mph 23.0 mph N/A   Clear
11:55 AM 78.4 °F 5.5 °F 6% 30.07 in 10.0 mi ENE 20.7 mph 29.9 mph N/A   Clear
12:55 PM 80.6 °F 7.9 °F 6% 30.05 in 10.0 mi ENE 18.4 mph 24.2 mph N/A   Clear
1:55 PM 82.8 °F 5.5 °F 5% 30.03 in 10.0 mi ENE 18.4 mph - N/A   Clear
2:55 PM 83.1 °F 9.9 °F 6% 30.02 in 10.0 mi ENE 13.8 mph - N/A   Clear
3:55 PM 82.8 °F 9.7 °F 6% 30.01 in 10.0 mi NE 10.4 mph - N/A   Clear
4:55 PM 81.1 °F 8.4 °F 6% 30.00 in 10.0 mi NE 9.2 mph - N/A   Clear
5:55 PM 77.0 °F 8.6 °F 7% 30.01 in 10.0 mi ENE 11.5 mph - N/A   Clear
6:55 PM 72.1 °F 9.0 °F 9% 30.01 in 10.0 mi ENE 8.1 mph - N/A   Clear
7:55 PM 70.0 °F 10.8 °F 10% 30.02 in 10.0 mi ENE 8.1 mph - N/A   Clear
8:55 PM 70.3 °F 7.2 °F 9% 30.02 in 10.0 mi ENE 9.2 mph - N/A   Clear
9:55 PM 65.8 °F 17.6 °F 16% 30.04 in 10.0 mi East 4.6 mph - N/A   Clear
10:55 PM 57.6 °F 32.0 °F 38% 30.05 in 10.0 mi Calm Calm - N/A   Clear
11:55 PM 56.5 °F 39.2 °F 52% 30.06 in 10.0 mi Calm Calm - N/A   Clear